FW2205 Weather Reports


Display with metric or nautical units.
time (UTC)temp
F
wind
direction
speed
MPH
gust
MPH
rain 1hr
in
rain 24hr
in
rain mn
in
humidity
%
barometer
mb
20190419001515 0 0.0 0.0 0.00 0.00 0.00
20190419001016 0 0.0 0.0 0.00 0.00 0.00
20190419000516 0 137 0.0 1.0 0.00 0.00 0.00
20190419000015 0 134 0.0 2.0 0.00 0.00 0.00
20190418235515 0 143 0.0 3.0 0.00 0.00 0.00
20190418235016 0 157 0.0 3.0 0.00 0.00 0.00
20190418234515 0 122 0.0 1.0 0.00 0.00 0.00
20190418234015 0 152 0.0 4.0 0.00 0.00 0.00
20190418233515 0 142 0.0 2.0 0.00 0.00 0.00
20190418233015 0 141 0.0 2.0 0.00 0.00 0.00
20190418232515 0 161 0.0 2.0 0.00 0.00 0.00
20190418232015 0 160 0.0 1.0 0.00 0.00 0.00
20190418231515 0 103 0.0 1.0 0.00 0.00 0.00
20190418231015 0 133 0.0 0.0 0.00 0.00 0.00
20190418230516 0 134 0.0 2.0 0.00 0.00 0.00
20190418230015 0 158 0.0 3.0 0.00 0.00 0.00
20190418225515 0 133 1.0 4.0 0.00 0.00 0.00
20190418225015 0 154 0.0 3.0 0.00 0.00 0.00
20190418224515 0 205 0.0 3.0 0.00 0.00 0.00
20190418224016 0 228 0.0 3.0 0.00 0.00 0.00
20190418223535 0 143 0.0 1.0 0.00 0.00 0.00
20190418223015 0 166 0.0 4.0 0.00 0.00 0.00
20190418222515 0 145 0.0 1.0 0.00 0.00 0.00
20190418222015 0 150 0.0 4.0 0.00 0.00 0.00
20190418221515 0 167 1.0 6.0 0.00 0.00 0.00
20190418221015 0 156 1.0 4.0 0.00 0.00 0.00
20190418220515 0 134 1.0 6.0 0.00 0.00 0.00
20190418220015 0 172 0.0 2.0 0.00 0.00 0.00
20190418215515 0 183 1.0 4.0 0.00 0.00 0.00
20190418215015 0 161 1.0 4.0 0.00 0.00 0.00
20190418214515 0 155 2.0 6.0 0.00 0.00 0.00
20190418214015 0 155 1.0 7.0 0.00 0.00 0.00
20190418213515 0 224 1.0 6.0 0.00 0.00 0.00
20190418213015 0 200 0.0 4.0 0.00 0.00 0.00
20190418212515 0 146 2.0 6.0 0.00 0.00 0.00
20190418212015 0 64 0.0 6.0 0.00 0.00 0.00
20190418211515 0 271 0.0 2.0 0.00 0.00 0.00
20190418211015 0 112 0.0 2.0 0.00 0.00 0.00
20190418210515 0 123 1.0 5.0 0.00 0.00 0.00
20190418210015 0 156 1.0 5.0 0.00 0.00 0.00
20190418205515 0 146 1.0 5.0 0.00 0.00 0.00
20190418205015 0 183 1.0 5.0 0.00 0.00 0.00
20190418204515 0 159 1.0 6.0 0.00 0.00 0.00
20190418204015 0 152 1.0 5.0 0.00 0.00 0.00
20190418203515 0 167 1.0 7.0 0.00 0.00 0.00
20190418203015 0 236 0.0 4.0 0.00 0.00 0.00
20190418202515 0 181 1.0 3.0 0.00 0.00 0.00
20190418202015 0 148 1.0 3.0 0.00 0.00 0.00
20190418201515 0 166 2.0 8.0 0.00 0.00 0.00
20190418201015 0 239 1.0 5.0 0.00 0.00 0.00
20190418200515 0 211 3.0 8.0 0.00 0.00 0.00
20190418200015 0 210 2.0 7.0 0.00 0.00 0.00
20190418195515 0 247 2.0 11.0 0.00 0.00 0.00
20190418195015 0 243 1.0 5.0 0.00 0.00 0.00
20190418194515 0 227 0.0 5.0 0.00 0.00 0.00
20190418194015 0 214 1.0 6.0 0.00 0.00 0.00
20190418193515 0 258 1.0 5.0 0.00 0.00 0.00
20190418193015 0 205 0.0 1.0 0.00 0.00 0.00
20190418192515 0 170 0.0 1.0 0.00 0.00 0.00
20190418192015 0 157 0.0 3.0 0.00 0.00 0.00
20190418191515 0 150 0.0 4.0 0.00 0.00 0.00
20190418191015 0 182 0.0 5.0 0.00 0.00 0.00
20190418190515 0 147 1.0 4.0 0.00 0.00 0.00
20190418190015 0 264 1.0 5.0 0.00 0.00 0.00
20190418185515 0 164 1.0 3.0 0.00 0.00 0.00
20190418185015 0 166 0.0 3.0 0.00 0.00 0.00
20190418184515 0 222 1.0 5.0 0.00 0.00 0.00
20190418184015 0 146 1.0 7.0 0.00 0.00 0.00
20190418183515 0 190 1.0 4.0 0.00 0.00 0.00
20190418183015 0 156 0.0 2.0 0.00 0.00 0.00
20190418182515 0 254 1.0 6.0 0.00 0.00 0.00
20190418182016 0 239 1.0 4.0 0.00 0.00 0.00
20190418181516 0 169 0.0 2.0 0.00 0.00 0.00
20190418181015 0 243 1.0 8.0 0.00 0.00 0.00
20190418180515 0 223 0.0 3.0 0.00 0.00 0.00
20190418180015 0 178 1.0 6.0 0.00 0.00 0.00
20190418175515 0 281 1.0 6.0 0.00 0.00 0.00
20190418175015 0 186 2.0 5.0 0.00 0.00 0.00
20190418174515 0 131 1.0 8.0 0.00 0.00 0.00
20190418174015 0 130 1.0 4.0 0.00 0.00 0.00
20190418173515 0 249 0.0 3.0 0.00 0.00 0.00
20190418173015 0 263 0.0 3.0 0.00 0.00 0.00
20190418172515 0 151 0.0 2.0 0.00 0.00 0.00
20190418172015 0 252 0.0 2.0 0.00 0.00 0.00
20190418171515 0 109 0.0 4.0 0.00 0.00 0.00
20190418171015 0 276 1.0 4.0 0.00 0.00 0.00
20190418170515 0 253 1.0 6.0 0.00 0.00 0.00
20190418170015 0 198 1.0 3.0 0.00 0.00 0.00
20190418165515 0 220 0.0 3.0 0.00 0.00 0.00
20190418165015 0 259 1.0 4.0 0.00 0.00 0.00
20190418164515 0 256 1.0 5.0 0.00 0.00 0.00
20190418164015 0 231 1.0 3.0 0.00 0.00 0.00
20190418163515 0 126 1.0 8.0 0.00 0.00 0.00
20190418163015 0 201 0.0 2.0 0.00 0.00 0.00
20190418162515 0 247 1.0 6.0 0.00 0.00 0.00
20190418162015 0 236 1.0 3.0 0.00 0.00 0.00
20190418161515 0 251 1.0 5.0 0.00 0.00 0.00
20190418161015 0 139 0.0 3.0 0.00 0.00 0.00
20190418160515 0 164 0.0 3.0 0.00 0.00 0.00
20190418160015 0 190 0.0 2.0 0.00 0.00 0.00
20190418155515 0 219 0.0 2.0 0.00 0.00 0.00
20190418155015 0 256 0.0 3.0 0.00 0.00 0.00
20190418154515 0 138 1.0 5.0 0.00 0.00 0.00
20190418154016 0 182 0.0 3.0 0.00 0.00 0.00
20190418153515 0 201 0.0 2.0 0.00 0.00 0.00
20190418153015 0 322 0.0 3.0 0.00 0.00 0.00
20190418152515 0 327 0.0 5.0 0.00 0.00 0.00
20190418152015 0 160 0.0 2.0 0.00 0.00 0.00
20190418151515 0 133 0.0 4.0 0.00 0.00 0.00
20190418151015 0 157 0.0 2.0 0.00 0.00 0.00
20190418150515 0 118 0.0 2.0 0.00 0.00 0.00
20190418150015 0 140 1.0 5.0 0.00 0.00 0.00
20190418145515 0 202 0.0 2.0 0.00 0.00 0.00
20190418145015 0 272 0.0 3.0 0.00 0.00 0.00
20190418144515 0 175 1.0 4.0 0.00 0.00 0.00
20190418144015 0 94 0.0 4.0 0.00 0.00 0.00
20190418143515 0 164 0.0 1.0 0.00 0.00 0.00
20190418143015 0 264 0.0 2.0 0.00 0.00 0.00
20190418142515 0 153 1.0 5.0 0.00 0.00 0.00
20190418142015 0 234 0.0 2.0 0.00 0.00 0.00
20190418141515 0 244 0.0 2.0 0.00 0.00 0.00
20190418141015 0 152 0.0 2.0 0.00 0.00 0.00
20190418140515 0 167 0.0 2.0 0.00 0.00 0.00
20190418140015 0 262 0.0 2.0 0.00 0.00 0.00
20190418135515 0 237 0.0 4.0 0.00 0.00 0.00
20190418135015 0 153 0.0 1.0 0.00 0.00 0.00
20190418134515 0 210 0.0 4.0 0.00 0.00 0.00
20190418134015 0 257 1.0 4.0 0.00 0.00 0.00
20190418133515 0 155 0.0 1.0 0.00 0.00 0.00
20190418133015 0 249 0.0 2.0 0.00 0.00 0.00
20190418132515 0 268 0.0 3.0 0.00 0.00 0.00
20190418132015 0 247 0.0 2.0 0.00 0.00 0.00
20190418131515 0 303 0.0 0.0 0.00 0.00 0.00
20190418131015 0 0.0 0.0 0.00 0.00 0.00
20190418130515 0 0.0 0.0 0.00 0.00 0.00
20190418130015 0 299 0.0 1.0 0.00 0.00 0.00
20190418125515 0 106 0.0 2.0 0.00 0.00 0.00
20190418125015 0 0.0 0.0 0.00 0.00 0.00
20190418124515 0 117 0.0 1.0 0.00 0.00 0.00
20190418124015 0 80 0.0 0.0 0.00 0.00 0.00
20190418123515 0 0.0 0.0 0.00 0.00 0.00
20190418123015 0 0.0 0.0 0.00 0.00 0.00
20190418122515 0 0.0 0.0 0.00 0.00 0.00
20190418122015 0 0.0 0.0 0.00 0.00 0.00
20190418121515 0 0.0 0.0 0.00 0.00 0.00
20190418121015 0 0.0 0.0 0.00 0.00 0.00
20190418120515 0 0.0 0.0 0.00 0.00 0.00
20190418120015 0 0.0 0.0 0.00 0.00 0.00
20190418115515 0 0.0 0.0 0.00 0.00 0.00
20190418115015 0 0.0 0.0 0.00 0.00 0.00
20190418114515 0 0.0 0.0 0.00 0.00 0.00
20190418114015 0 0.0 0.0 0.00 0.00 0.00
20190418113515 0 0.0 0.0 0.00 0.00 0.00
20190418113015 0 0.0 0.0 0.00 0.00 0.00
20190418112515 0 0.0 0.0 0.00 0.00 0.00
20190418112015 0 0.0 0.0 0.00 0.00 0.00
20190418111515 0 0.0 0.0 0.00 0.00 0.00
20190418111015 0 0.0 0.0 0.00 0.00 0.00
20190418110515 0 0.0 0.0 0.00 0.00 0.00
20190418110015 0 0.0 0.0 0.00 0.00 0.00
20190418105515 0 0.0 0.0 0.00 0.00 0.00
20190418105015 0 0.0 0.0 0.00 0.00 0.00
20190418104515 0 0.0 0.0 0.00 0.00 0.00
20190418104015 0 0.0 0.0 0.00 0.00 0.00
20190418103515 0 0.0 0.0 0.00 0.00 0.00
20190418103015 0 0.0 0.0 0.00 0.00 0.00
20190418102515 0 0.0 0.0 0.00 0.00 0.00
20190418102015 0 0.0 0.0 0.00 0.00 0.00
20190418101515 0 0.0 0.0 0.00 0.00 0.00
20190418101015 0 0.0 0.0 0.00 0.00 0.00
20190418100515 0 0.0 0.0 0.00 0.00 0.00
20190418100015 0 0.0 0.0 0.00 0.00 0.00
20190418095515 0 0.0 0.0 0.00 0.00 0.00
20190418095015 0 0.0 0.0 0.00 0.00 0.00
20190418094515 0 0.0 0.0 0.00 0.00 0.00
20190418094015 0 0.0 0.0 0.00 0.00 0.00
20190418093515 0 0.0 0.0 0.00 0.00 0.00
20190418093015 0 0.0 0.0 0.00 0.00 0.00
20190418092515 0 0.0 0.0 0.00 0.00 0.00
20190418092015 0 0.0 0.0 0.00 0.00 0.00
20190418091515 0 0.0 0.0 0.00 0.00 0.00
20190418091015 0 0.0 0.0 0.00 0.00 0.00
20190418090515 0 0.0 0.0 0.00 0.00 0.00
20190418090015 0 0.0 0.0 0.00 0.00 0.00
20190418085515 0 0.0 0.0 0.00 0.00 0.00
20190418085015 0 0.0 0.0 0.00 0.00 0.00
20190418084515 0 0.0 0.0 0.00 0.00 0.00
20190418084015 0 0.0 0.0 0.00 0.00 0.00
20190418083515 0 0.0 0.0 0.00 0.00 0.00
20190418083015 0 75 0.0 0.0 0.00 0.00 0.00
20190418082515 0 0.0 0.0 0.00 0.00 0.00
20190418082015 0 0.0 0.0 0.00 0.00 0.00
20190418081515 0 0.0 0.0 0.00 0.00 0.00
20190418081015 0 0.0 0.0 0.00 0.00 0.00
20190418080515 0 0.0 0.0 0.00 0.00 0.00
20190418080015 0 0.0 0.0 0.00 0.00 0.00
20190418075515 0 0.0 0.0 0.00 0.00 0.00
20190418075015 0 0.0 0.0 0.00 0.00 0.00
20190418074516 0 0.0 0.0 0.00 0.00 0.00
20190418074015 0 0.0 0.0 0.00 0.00 0.00
20190418073515 0 0.0 0.0 0.00 0.00 0.00
20190418073015 0 0.0 0.0 0.00 0.00 0.00
20190418072515 0 0.0 0.0 0.00 0.00 0.00
20190418072015 0 0.0 0.0 0.00 0.00 0.00
20190418071515 0 0.0 0.0 0.00 0.00 0.00
20190418071015 0 0.0 0.0 0.00 0.00 0.00
20190418070515 0 0.0 0.0 0.00 0.00 0.00
20190418070015 0 0.0 0.0 0.00 0.00 0.00
20190418065515 0 0.0 0.0 0.00 0.00 0.00
20190418065015 0 0.0 0.0 0.00 0.00 0.00
20190418064516 0 0.0 0.0 0.00 0.00 0.00
20190418064015 0 0.0 0.0 0.00 0.00 0.00
20190418063515 0 0.0 0.0 0.00 0.00 0.00
20190418063015 0 0.0 0.0 0.00 0.00 0.00
20190418062515 0 0.0 0.0 0.00 0.00 0.00
20190418062015 0 0.0 0.0 0.00 0.00 0.00
20190418061515 0 0.0 0.0 0.00 0.00 0.00
20190418061015 0 0.0 0.0 0.00 0.00 0.00
20190418060515 0 0.0 0.0 0.00 0.00 0.00
20190418060015 0 0.0 0.0 0.00 0.00 0.00
20190418055515 0 0.0 0.0 0.00 0.00 0.00
20190418055015 0 0.0 0.0 0.00 0.00 0.00
20190418054515 0 0.0 0.0 0.00 0.00 0.00
20190418054015 0 0.0 0.0 0.00 0.00 0.00
20190418053515 0 0.0 0.0 0.00 0.00 0.00
20190418053015 0 0.0 0.0 0.00 0.00 0.00
20190418052515 0 0.0 0.0 0.00 0.00 0.00
20190418052015 0 0.0 0.0 0.00 0.00 0.00
20190418051515 0 0.0 0.0 0.00 0.00 0.00
20190418051015 0 0.0 0.0 0.00 0.00 0.00
20190418050515 0 0.0 0.0 0.00 0.00 0.00
20190418050015 0 0.0 0.0 0.00 0.00 0.00
20190418045515 0 0.0 0.0 0.00 0.00 0.00
20190418045015 0 0.0 0.0 0.00 0.00 0.00
20190418044515 0 0.0 0.0 0.00 0.00 0.00
20190418044016 0 0.0 0.0 0.00 0.00 0.00
20190418043515 0 0.0 0.0 0.00 0.00 0.00
20190418043015 0 0.0 0.0 0.00 0.00 0.00
20190418042515 0 0.0 0.0 0.00 0.00 0.00
20190418042015 0 0.0 0.0 0.00 0.00 0.00
20190418041515 0 0.0 0.0 0.00 0.00 0.00
20190418041015 0 0.0 0.0 0.00 0.00 0.00
20190418040515 0 0.0 0.0 0.00 0.00 0.00
20190418040015 0 0.0 0.0 0.00 0.00 0.00
20190418035515 0 0.0 0.0 0.00 0.00 0.00
20190418035015 0 0.0 0.0 0.00 0.00 0.00
20190418034515 0 0.0 0.0 0.00 0.00 0.00
20190418034015 0 0.0 0.0 0.00 0.00 0.00
20190418033515 0 0.0 0.0 0.00 0.00 0.00
20190418033015 0 0.0 0.0 0.00 0.00 0.00
20190418032515 0 0.0 0.0 0.00 0.00 0.00
20190418032015 0 0.0 0.0 0.00 0.00 0.00
20190418031515 0 0.0 0.0 0.00 0.00 0.00
20190418031015 0 0.0 0.0 0.00 0.00 0.00
20190418030515 0 0.0 0.0 0.00 0.00 0.00
20190418030015 0 0.0 0.0 0.00 0.00 0.00
20190418025515 0 0.0 0.0 0.00 0.00 0.00
20190418025015 0 0.0 0.0 0.00 0.00 0.00
20190418024515 0 0.0 0.0 0.00 0.00 0.00
20190418024017 0 0.0 0.0 0.00 0.00 0.00
20190418023515 0 0.0 0.0 0.00 0.00 0.00
20190418023015 0 0.0 0.0 0.00 0.00 0.00
20190418022515 0 0.0 0.0 0.00 0.00 0.00
20190418022015 0 0.0 0.0 0.00 0.00 0.00
20190418021515 0 0.0 0.0 0.00 0.00 0.00
20190418021015 0 0.0 0.0 0.00 0.00 0.00
20190418020515 0 0.0 0.0 0.00 0.00 0.00
20190418020015 0 0.0 0.0 0.00 0.00 0.00
20190418015515 0 0.0 0.0 0.00 0.00 0.00
20190418015015 0 0.0 0.0 0.00 0.00 0.00
20190418014515 0 0.0 0.0 0.00 0.00 0.00
20190418014015 0 0.0 0.0 0.00 0.00 0.00
20190418013515 0 0.0 0.0 0.00 0.00 0.00
20190418013015 0 0.0 0.0 0.00 0.00 0.00
20190418012515 0 0.0 0.0 0.00 0.00 0.00
20190418012015 0 0.0 0.0 0.00 0.00 0.00
20190418011515 0 0.0 0.0 0.00 0.00 0.00
20190418011015 0 0.0 0.0 0.00 0.00 0.00
20190418010515 0 0.0 0.0 0.00 0.00 0.00
20190418010015 0 0.0 0.0 0.00 0.00 0.00
20190418005515 0 0.0 0.0 0.00 0.00 0.00
20190418005015 0 0.0 0.0 0.00 0.00 0.00
20190418004516 0 0.0 0.0 0.00 0.00 0.00
20190418004015 0 0.0 0.0 0.00 0.00 0.00
20190418003515 0 0.0 0.0 0.00 0.00 0.00
20190418003015 0 0.0 0.0 0.00 0.00 0.00
20190418002515 0 0.0 0.0 0.00 0.00 0.00
20190418002015 0 0.0 0.0 0.00 0.00 0.00